| time (UTC) | temp F | wind direction | speed knots | gust knots | rain 1hr in | rain 24hr in | rain mn in | humidity % | barometer mb |
| 20260906051921 | 82 | 0.0 | 0.0 | 0.00 | 0.00 | 0.00 | 19 | 1015.6 | |
| 20260906050921 | 82 | 0.0 | 0.0 | 0.00 | 0.00 | 0.00 | 21 | 1015.6 | |
| 20260906045921 | 80 | 0.0 | 0.0 | 0.00 | 0.00 | 0.00 | 23 | 1015.9 | |
| 20260906044921 | 77 | 0.0 | 0.0 | 0.00 | 0.00 | 0.00 | 24 | 1016.5 | |
| 20260906043921 | 74 | 0.0 | 0.0 | 0.00 | 0.00 | 0.00 | 28 | 1016.7 | |
| 20260906042921 | 72 | 0.0 | 0.0 | 0.00 | 0.00 | 0.00 | 29 | 1017.1 | |
| 20260906041921 | 71 | 0.0 | 0.0 | 0.00 | 0.00 | 0.00 | 30 | 1017.3 | |
| 20260906040921 | 70 | 0.0 | 0.0 | 0.00 | 0.00 | 0.00 | 32 | 1017.3 | |
| 20260906035921 | 70 | 0.0 | 0.0 | 0.00 | 0.00 | 0.00 | 33 | 1017.5 | |
| 20260906034923 | 70 | 0.0 | 0.0 | 0.00 | 0.00 | 0.00 | 31 | 1017.2 | |
| 20260906033921 | 70 | 0.0 | 0.0 | 0.00 | 0.00 | 0.00 | 33 | 1016.9 | |
| 20260906032921 | 70 | 0.0 | 0.0 | 0.00 | 0.00 | 0.00 | 33 | 1017.0 | |
| 20260906031921 | 69 | 0.0 | 0.0 | 0.00 | 0.00 | 0.00 | 34 | 1017.0 | |
| 20260906030921 | 69 | 0.0 | 0.0 | 0.00 | 0.00 | 0.00 | 34 | 1017.1 | |
| 20260906025922 | 69 | 0.0 | 0.0 | 0.00 | 0.00 | 0.00 | 34 | 1016.9 | |
| 20260906024922 | 70 | 0.0 | 0.0 | 0.00 | 0.00 | 0.00 | 34 | 1016.7 | |
| 20260906023922 | 70 | 0.0 | 0.0 | 0.00 | 0.00 | 0.00 | 34 | 1016.8 | |
| 20260906022921 | 70 | 0.0 | 0.0 | 0.00 | 0.00 | 0.00 | 34 | 1016.7 | |
| 20260906021922 | 70 | 0.0 | 0.0 | 0.00 | 0.00 | 0.00 | 34 | 1016.6 | |
| 20260906020921 | 70 | 0.0 | 0.0 | 0.00 | 0.00 | 0.00 | 34 | 1016.6 | |
| 20260906015921 | 70 | 0.0 | 0.0 | 0.00 | 0.00 | 0.00 | 34 | 1016.8 | |
| 20260906014921 | 70 | 0.0 | 0.0 | 0.00 | 0.00 | 0.00 | 32 | 1016.8 | |
| 20260906013921 | 70 | 0.0 | 0.0 | 0.00 | 0.00 | 0.00 | 32 | 1016.7 | |
| 20260906012921 | 70 | 0.0 | 0.0 | 0.00 | 0.00 | 0.00 | 32 | 1016.7 | |
| 20260906011921 | 70 | 0.0 | 0.0 | 0.00 | 0.00 | 0.00 | 34 | 1016.7 | |
| 20260906010922 | 71 | 0.0 | 0.0 | 0.00 | 0.00 | 0.00 | 32 | 1016.6 | |
| 20260906005921 | 70 | 0.0 | 0.0 | 0.00 | 0.00 | 0.00 | 32 | 1016.6 | |
| 20260906004921 | 71 | 0.0 | 0.0 | 0.00 | 0.00 | 0.00 | 32 | 1016.7 | |
| 20260906003921 | 70 | 0.0 | 0.0 | 0.00 | 0.00 | 0.00 | 32 | 1016.6 | |
| 20260906002924 | 71 | 0.0 | 0.0 | 0.00 | 0.00 | 0.00 | 32 | 1016.6 | |
| 20260906001921 | 71 | 0.0 | 0.0 | 0.00 | 0.00 | 0.00 | 31 | 1016.6 | |
| 20260906000921 | 71 | 0.0 | 0.0 | 0.00 | 0.00 | 0.00 | 32 | 1016.7 | |
| 20260905235922 | 70 | 0.0 | 0.0 | 0.00 | 0.00 | 0.00 | 32 | 1016.9 | |
| 20260905234921 | 71 | 0.0 | 0.0 | 0.00 | 0.00 | 0.00 | 31 | 1016.6 | |
| 20260905233921 | 72 | 0.0 | 0.0 | 0.00 | 0.00 | 0.00 | 31 | 1016.5 | |
| 20260905232921 | 71 | 0.0 | 0.0 | 0.00 | 0.00 | 0.00 | 31 | 1016.6 | |
| 20260905231921 | 72 | 0.0 | 0.0 | 0.00 | 0.00 | 0.00 | 30 | 1016.5 | |
| 20260905230921 | 72 | 0.0 | 0.0 | 0.00 | 0.00 | 0.00 | 30 | 1016.4 | |
| 20260905225921 | 72 | 0.0 | 0.0 | 0.00 | 0.00 | 0.00 | 30 | 1016.5 | |
| 20260905224925 | 72 | 0.0 | 0.0 | 0.00 | 0.00 | 0.00 | 29 | 1016.5 | |
| 20260905223922 | 73 | 0.0 | 0.0 | 0.00 | 0.00 | 0.00 | 28 | 1016.5 | |
| 20260905222922 | 73 | 0.0 | 0.0 | 0.00 | 0.00 | 0.00 | 28 | 1016.5 | |
| 20260905221922 | 72 | 0.0 | 0.0 | 0.00 | 0.00 | 0.00 | 29 | 1016.6 | |
| 20260905220921 | 72 | 0.0 | 0.0 | 0.00 | 0.00 | 0.00 | 29 | 1016.6 | |
| 20260905215921 | 72 | 0.0 | 0.0 | 0.00 | 0.00 | 0.00 | 29 | 1016.6 | |
| 20260905214921 | 73 | 0.0 | 0.0 | 0.00 | 0.00 | 0.00 | 29 | 1016.5 | |
| 20260905213921 | 73 | 0.0 | 0.0 | 0.00 | 0.00 | 0.00 | 31 | 1016.6 | |
| 20260905212922 | 73 | 0.0 | 0.0 | 0.00 | 0.00 | 0.00 | 31 | 1016.5 | |
| 20260905211921 | 74 | 0.0 | 0.0 | 0.00 | 0.00 | 0.00 | 31 | 1016.4 | |
| 20260905210921 | 74 | 0.0 | 0.0 | 0.00 | 0.00 | 0.00 | 30 | 1016.4 | |
| 20260905205921 | 74 | 0.0 | 0.0 | 0.00 | 0.00 | 0.00 | 30 | 1016.5 | |
| 20260905204924 | 74 | 0.0 | 0.0 | 0.00 | 0.00 | 0.00 | 31 | 1016.4 | |
| 20260905203922 | 74 | 0.0 | 0.0 | 0.00 | 0.00 | 0.00 | 30 | 1016.3 | |
| 20260905202924 | 74 | 0.0 | 0.0 | 0.00 | 0.00 | 0.00 | 29 | 1016.2 | |
| 20260905201921 | 75 | 0.0 | 0.0 | 0.00 | 0.00 | 0.00 | 29 | 1016.1 | |
| 20260905200922 | 75 | 0.0 | 0.0 | 0.00 | 0.00 | 0.00 | 28 | 1016.1 | |
| 20260905195921 | 75 | 0.0 | 0.0 | 0.00 | 0.00 | 0.00 | 26 | 1016.1 | |
| 20260905194921 | 76 | 0.0 | 0.0 | 0.00 | 0.00 | 0.00 | 25 | 1015.9 | |
| 20260905193922 | 75 | 0.0 | 0.0 | 0.00 | 0.00 | 0.00 | 26 | 1016.0 | |
| 20260905192921 | 75 | 0.0 | 0.0 | 0.00 | 0.00 | 0.00 | 27 | 1016.0 | |
| 20260905191921 | 75 | 0.0 | 0.0 | 0.00 | 0.00 | 0.00 | 27 | 1016.0 | |
| 20260905190922 | 76 | 0.0 | 0.0 | 0.00 | 0.00 | 0.00 | 26 | 1015.8 | |
| 20260905185921 | 76 | 0.0 | 0.0 | 0.00 | 0.00 | 0.00 | 26 | 1015.6 | |
| 20260905184921 | 76 | 0.0 | 0.0 | 0.00 | 0.00 | 0.00 | 25 | 1015.5 | |
| 20260905183921 | 76 | 0.0 | 0.0 | 0.00 | 0.00 | 0.00 | 25 | 1015.4 | |
| 20260905182921 | 77 | 0.0 | 0.0 | 0.00 | 0.00 | 0.00 | 24 | 1015.1 | |
| 20260905181925 | 77 | 0.0 | 0.0 | 0.00 | 0.00 | 0.00 | 24 | 1015.1 | |
| 20260905180921 | 77 | 0.0 | 0.0 | 0.00 | 0.00 | 0.00 | 25 | 1014.9 | |
| 20260905175921 | 77 | 0.0 | 0.0 | 0.00 | 0.00 | 0.00 | 24 | 1015.0 | |
| 20260905174922 | 77 | 0.0 | 0.0 | 0.00 | 0.00 | 0.00 | 24 | 1014.7 | |
| 20260905173923 | 78 | 0.0 | 0.0 | 0.00 | 0.00 | 0.00 | 24 | 1014.5 | |
| 20260905172921 | 78 | 0.0 | 0.0 | 0.00 | 0.00 | 0.00 | 23 | 1014.3 | |
| 20260905171921 | 79 | 0.0 | 0.0 | 0.00 | 0.00 | 0.00 | 23 | 1014.1 | |
| 20260905170922 | 80 | 0.0 | 0.0 | 0.00 | 0.00 | 0.00 | 22 | 1014.1 | |
| 20260905165922 | 80 | 0.0 | 0.0 | 0.00 | 0.00 | 0.00 | 23 | 1013.9 | |
| 20260905164921 | 81 | 0.0 | 0.0 | 0.00 | 0.00 | 0.00 | 21 | 1013.6 | |
| 20260905163924 | 82 | 0.0 | 0.0 | 0.00 | 0.00 | 0.00 | 19 | 1013.2 | |
| 20260905162922 | 83 | 0.0 | 0.0 | 0.00 | 0.00 | 0.00 | 18 | 1013.1 | |
| 20260905161921 | 84 | 0.0 | 0.0 | 0.00 | 0.00 | 0.00 | 18 | 1013.0 | |
| 20260905160921 | 84 | 0.0 | 0.0 | 0.00 | 0.00 | 0.00 | 18 | 1013.1 | |
| 20260905155921 | 84 | 0.0 | 0.0 | 0.00 | 0.00 | 0.00 | 18 | 1013.0 | |
| 20260905154921 | 84 | 0.0 | 0.0 | 0.00 | 0.00 | 0.00 | 17 | 1012.9 | |
| 20260905153921 | 84 | 0.0 | 0.0 | 0.00 | 0.00 | 0.00 | 16 | 1012.8 | |
| 20260905152922 | 84 | 0.0 | 0.0 | 0.00 | 0.00 | 0.00 | 16 | 1012.9 | |
| 20260905151921 | 85 | 0.0 | 0.0 | 0.00 | 0.00 | 0.00 | 16 | 1012.7 | |
| 20260905150922 | 85 | 0.0 | 0.0 | 0.00 | 0.00 | 0.00 | 16 | 1012.7 | |
| 20260905145921 | 85 | 0.0 | 0.0 | 0.00 | 0.00 | 0.00 | 16 | 1012.7 | |
| 20260905144921 | 86 | 0.0 | 0.0 | 0.00 | 0.00 | 0.00 | 16 | 1012.5 | |
| 20260905143921 | 85 | 0.0 | 0.0 | 0.00 | 0.00 | 0.00 | 16 | 1012.7 | |
| 20260905142921 | 85 | 0.0 | 0.0 | 0.00 | 0.00 | 0.00 | 16 | 1012.8 | |
| 20260905141921 | 85 | 0.0 | 0.0 | 0.00 | 0.00 | 0.00 | 16 | 1012.8 | |
| 20260905140921 | 85 | 0.0 | 0.0 | 0.00 | 0.00 | 0.00 | 16 | 1012.9 | |
| 20260905135921 | 85 | 0.0 | 0.0 | 0.00 | 0.00 | 0.00 | 16 | 1013.0 | |
| 20260905134921 | 85 | 0.0 | 0.0 | 0.00 | 0.00 | 0.00 | 16 | 1013.1 | |
| 20260905133921 | 85 | 0.0 | 0.0 | 0.00 | 0.00 | 0.00 | 17 | 1013.3 | |
| 20260905132921 | 85 | 0.0 | 0.0 | 0.00 | 0.00 | 0.00 | 17 | 1013.3 | |
| 20260905131922 | 85 | 0.0 | 0.0 | 0.00 | 0.00 | 0.00 | 17 | 1013.4 | |
| 20260905130921 | 85 | 0.0 | 0.0 | 0.00 | 0.00 | 0.00 | 17 | 1013.5 | |
| 20260905125921 | 85 | 0.0 | 0.0 | 0.00 | 0.00 | 0.00 | 18 | 1013.6 | |
| 20260905124921 | 84 | 0.0 | 0.0 | 0.00 | 0.00 | 0.00 | 18 | 1013.7 | |
| 20260905123921 | 84 | 0.0 | 0.0 | 0.00 | 0.00 | 0.00 | 18 | 1013.7 | |
| 20260905122921 | 84 | 0.0 | 0.0 | 0.00 | 0.00 | 0.00 | 18 | 1013.8 | |
| 20260905121921 | 84 | 0.0 | 0.0 | 0.00 | 0.00 | 0.00 | 18 | 1014.0 | |
| 20260905120920 | 84 | 0.0 | 0.0 | 0.00 | 0.00 | 0.00 | 18 | 1014.0 | |
| 20260905115921 | 84 | 0.0 | 0.0 | 0.00 | 0.00 | 0.00 | 18 | 1014.1 | |
| 20260905114920 | 84 | 0.0 | 0.0 | 0.00 | 0.00 | 0.00 | 18 | 1014.3 | |
| 20260905113921 | 84 | 0.0 | 0.0 | 0.00 | 0.00 | 0.00 | 18 | 1014.4 | |
| 20260905112922 | 84 | 0.0 | 0.0 | 0.00 | 0.00 | 0.00 | 18 | 1014.5 | |
| 20260905111921 | 84 | 0.0 | 0.0 | 0.00 | 0.00 | 0.00 | 18 | 1014.5 | |
| 20260905110921 | 84 | 0.0 | 0.0 | 0.00 | 0.00 | 0.00 | 18 | 1014.5 | |
| 20260905105921 | 84 | 0.0 | 0.0 | 0.00 | 0.00 | 0.00 | 18 | 1014.8 | |
| 20260905104921 | 84 | 0.0 | 0.0 | 0.00 | 0.00 | 0.00 | 18 | 1014.8 | |
| 20260905103921 | 84 | 0.0 | 0.0 | 0.00 | 0.00 | 0.00 | 18 | 1014.8 | |
| 20260905102921 | 84 | 0.0 | 0.0 | 0.00 | 0.00 | 0.00 | 18 | 1014.8 | |
| 20260905101920 | 85 | 0.0 | 0.0 | 0.00 | 0.00 | 0.00 | 18 | 1014.7 | |
| 20260905100920 | 86 | 0.0 | 0.0 | 0.00 | 0.00 | 0.00 | 18 | 1014.7 | |
| 20260905095920 | 86 | 0.0 | 0.0 | 0.00 | 0.00 | 0.00 | 17 | 1014.8 | |
| 20260905094921 | 89 | 0.0 | 0.0 | 0.00 | 0.00 | 0.00 | 14 | 1014.4 | |
| 20260905093920 | 90 | 0.0 | 0.0 | 0.00 | 0.00 | 0.00 | 14 | 1014.5 | |
| 20260905092920 | 93 | 0.0 | 0.0 | 0.00 | 0.00 | 0.00 | 13 | 1014.3 | |
| 20260905091920 | 96 | 0.0 | 0.0 | 0.00 | 0.00 | 0.00 | 12 | 1013.9 | |
| 20260905090921 | 92 | 0.0 | 0.0 | 0.00 | 0.00 | 0.00 | 13 | 1014.4 | |
| 20260905085920 | 96 | 0.0 | 0.0 | 0.00 | 0.00 | 0.00 | 12 | 1013.9 | |
| 20260905084921 | 92 | 0.0 | 0.0 | 0.00 | 0.00 | 0.00 | 13 | 1014.5 | |
| 20260905083921 | 93 | 0.0 | 0.0 | 0.00 | 0.00 | 0.00 | 13 | 1014.4 | |
| 20260905082921 | 94 | 0.0 | 0.0 | 0.00 | 0.00 | 0.00 | 13 | 1014.4 | |
| 20260905081921 | 92 | 0.0 | 0.0 | 0.00 | 0.00 | 0.00 | 13 | 1014.5 | |
| 20260905080921 | 92 | 0.0 | 0.0 | 0.00 | 0.00 | 0.00 | 13 | 1014.7 | |
| 20260905075923 | 93 | 0.0 | 0.0 | 0.00 | 0.00 | 0.00 | 13 | 1014.2 | |
| 20260905074921 | 92 | 0.0 | 0.0 | 0.00 | 0.00 | 0.00 | 13 | 1014.5 | |
| 20260905073921 | 94 | 0.0 | 0.0 | 0.00 | 0.00 | 0.00 | 13 | 1014.1 | |
| 20260905072922 | 93 | 0.0 | 0.0 | 0.00 | 0.00 | 0.00 | 13 | 1014.3 | |
| 20260905071921 | 94 | 0.0 | 0.0 | 0.00 | 0.00 | 0.00 | 13 | 1014.0 | |
| 20260905070920 | 94 | 0.0 | 0.0 | 0.00 | 0.00 | 0.00 | 13 | 1014.2 | |
| 20260905065921 | 95 | 0.0 | 0.0 | 0.00 | 0.00 | 0.00 | 13 | 1014.2 | |
| 20260905064920 | 95 | 0.0 | 0.0 | 0.00 | 0.00 | 0.00 | 13 | 1014.1 | |
| 20260905063920 | 95 | 0.0 | 0.0 | 0.00 | 0.00 | 0.00 | 13 | 1014.0 | |
| 20260905062921 | 91 | 0.0 | 0.0 | 0.00 | 0.00 | 0.00 | 14 | 1014.6 | |
| 20260905061920 | 90 | 0.0 | 0.0 | 0.00 | 0.00 | 0.00 | 15 | 1014.7 | |
| 20260905060920 | 90 | 0.0 | 0.0 | 0.00 | 0.00 | 0.00 | 15 | 1015.0 | |
| 20260905055920 | 90 | 0.0 | 0.0 | 0.00 | 0.00 | 0.00 | 16 | 1015.1 | |
| 20260905054920 | 86 | 0.0 | 0.0 | 0.00 | 0.00 | 0.00 | 17 | 1015.7 | |
| 20260905053921 | 87 | 0.0 | 0.0 | 0.00 | 0.00 | 0.00 | 17 | 1015.5 | |
| 20260905052920 | 85 | 0.0 | 0.0 | 0.00 | 0.00 | 0.00 | 18 | 1015.6 |